Regional Weather Roundup
Issued by NWS

Home | Current Version | Previous Version | Graphics & Text | Print | Product List | Glossary On
Versions: 1 2 3 4 5 6 7 8 9 10 11 12 13 14 15 16 17 18 19 20 21 22 23 24 25 26 27 28 29 30 31 32 33 34 35 36 37 38 39 40 41 42 43 44 45 46 47 48 49 50
000
ASUS43 KLSX 260959
RWRMO

WEATHER SUMMARY FOR MISSOURI
NATIONAL WEATHER SERVICE SPRINGFIELD MO
400 AM CST FRI DEC 26 2014

NOTE: "FAIR" INDICATES FEW OR NO CLOUDS BELOW 12,000 FEET WITH NO
       SIGNIFICANT WEATHER AND/OR OBSTRUCTIONS TO VISIBILITY.
       CURRENT SKY AND/OR WEATHER CONDITIONS ARE NOT AVAILABLE FOR
       CHILLICOTHE AND FARMINGTON.

MOZ001>031-035>038-043-044-053-054-261100-
...NORTHERN AND WESTERN MISSOURI...

CITY           SKY/WX    TMP DP  RH WIND       PRES   REMARKS
KANSAS CTY INT MOCLDY    45  32  60 S14       29.84R
KANSAS C DTWN  PTCLDY    49  32  52 S12       29.85R
LEE`S SUMMIT   MOCLDY    44  31  60 S7        29.86S
ST JOSEPH      PTCLDY    37  30  75 S8        29.83S
CHILLICOTHE      N/A     40  31  70 SE6       29.89R
KIRKSVILLE     CLEAR     33  30  88 S8        29.90R WCI  26

$$
MOZ066>068-077>081-088>096-101>105-261100-
...SOUTHWEST MISSOURI...

CITY           SKY/WX    TMP DP  RH WIND       PRES   REMARKS
SPRINGFIELD    MOCLDY    42  33  70 S14       29.95S
JOPLIN         PTCLDY    47  36  65 S16       29.92S

$$
MOZ032>034-039>042-045>050-055>058-069>072-261100-
...CENTRAL MISSOURI...

CITY           SKY/WX    TMP DP  RH WIND       PRES   REMARKS
COLUMBIA       PTCLDY    41  33  73 S12       29.95F
JEFFERSON CITY PTCLDY    41  33  73 SE6       29.98S
ROLLA          CLEAR     42  34  73 S15       29.98S
SEDALIA        MOCLDY    46  33  60 S15       29.91F
OSAGE BEACH    PTCLDY    43  32  65 S10       29.96S

$$
MOZ051-052-059>065-261100-
...EAST CENTRAL MISSOURI...

CITY           SKY/WX    TMP DP  RH WIND       PRES   REMARKS
ST LOUIS INTL  PTCLDY    40  33  76 E5        30.05F
SPIRIT OF STL  CLEAR     43  35  73 S5        30.03F
ST CHARLES     CLEAR     35  33  92 E12       30.04F WCI  27

$$
MOZ072>076-082>087-097>100-106>115-261100-
...SOUTH CENTRAL AND SOUTHEAST MISSOURI...

CITY           SKY/WX    TMP DP  RH WIND       PRES   REMARKS
CAPE GIRARDEAU CLEAR     41  35  79 S10       30.15S
FARMINGTON     CLEAR     39  34  81 SE9       30.09S
POPLAR BLUFF   PTCLDY    36  31  82 CALM      30.12S
WEST PLAINS    PTCLDY    38  33  82 S5        30.05S

$$


USA.gov is the U.S. government's official web portal to all federal, state and local government web resources and services.